Location: Unspecified
(41.5000°N, 0.0000°E)
Time: 08:40:52
(UTC+00:00)

Transit 2A Rocket - All Passes

Search period start: 19 June 2019 00:00
Search period end: 29 June 2019 00:00
Orbit: 586 x 917 km, 66.7° (Epoch: 18 June)

Date Brightness Start Highest point End Pass type
(mag) Time Alt. Az. Time Alt. Az. Time Alt. Az.
19 Jun - 09:14:15 10° SE 09:18:00 17° ESE 09:21:43 10° ENE daylight
19 Jun - 10:53:51 10° SSW 10:59:59 81° WNW 11:06:00 10° NNE daylight
19 Jun - 12:39:28 10° W 12:43:31 18° NW 12:47:28 10° N daylight
19 Jun - 17:57:18 10° N 18:00:20 15° NE 18:03:15 10° ENE daylight
19 Jun - 19:38:38 10° NNW 19:43:55 82° ENE 19:48:40 10° SSE daylight
19 Jun - 21:24:10 10° W 21:25:32 11° W 21:26:52 10° WSW visible
20 Jun - 10:11:27 10° SSW 10:17:29 64° ESE 10:23:26 10° NE daylight
20 Jun - 11:55:32 10° WSW 12:00:34 26° NW 12:05:29 10° N daylight
20 Jun - 17:16:33 10° NNE 17:17:14 10° NNE 17:17:53 10° NE daylight
20 Jun - 18:56:12 10° NNW 19:01:19 48° NE 19:05:57 10° SE daylight
20 Jun - 20:39:43 10° WNW 20:43:27 21° WSW 20:46:57 10° SSW visible
21 Jun - 09:29:29 10° S 09:35:06 39° ESE 09:40:38 10° NE daylight
21 Jun - 11:12:05 10° WSW 11:17:45 39° NW 11:23:18 10° NNE daylight
21 Jun - 18:13:57 10° NNW 18:18:34 29° NE 18:22:49 10° ESE daylight
21 Jun - 19:56:31 10° NW 20:01:14 37° WSW 20:05:33 10° S daylight
22 Jun - 08:48:05 10° SSE 08:52:49 24° ESE 08:57:31 10° NE daylight
22 Jun - 10:29:02 10° SW 10:35:05 60° WNW 10:40:58 10° NNE daylight
22 Jun - 12:15:49 10° WNW 12:18:54 14° NW 12:21:56 10° N daylight
22 Jun - 17:31:54 10° N 17:35:40 19° NE 17:39:13 10° E daylight
22 Jun - 19:13:44 10° NW 19:18:53 69° WSW 19:23:32 10° SSE daylight
23 Jun - 08:07:41 10° SE 08:10:39 14° ESE 08:13:35 10° ENE daylight
23 Jun - 09:46:23 10° SSW 09:52:30 87° ESE 09:58:30 10° NNE daylight
23 Jun - 11:31:28 10° W 11:35:52 20° NW 11:40:10 10° N daylight
23 Jun - 16:50:13 10° N 16:52:39 13° NE 16:54:59 10° ENE daylight
23 Jun - 18:31:11 10° NNW 18:36:24 68° ENE 18:41:05 10° SE daylight
23 Jun - 20:15:43 10° WNW 20:18:11 14° WSW 20:20:33 10° SW visible
24 Jun - 09:04:07 10° S 09:10:03 54° ESE 09:15:52 10° NE daylight
24 Jun - 10:47:43 10° WSW 10:52:59 30° NW 10:58:06 10° NNE daylight
24 Jun - 17:48:49 10° NNW 17:53:45 40° NE 17:58:13 10° ESE daylight
24 Jun - 19:31:57 10° NW 19:36:03 25° WSW 19:39:51 10° SSW daylight
25 Jun - 08:22:19 10° S 08:27:41 33° ESE 08:32:59 10° NE daylight
25 Jun - 10:04:23 10° SW 10:10:13 45° NW 10:15:53 10° NNE daylight
25 Jun - 11:52:46 10° NW 11:54:20 11° NNW 11:55:53 10° NNW daylight
25 Jun - 17:06:37 10° N 17:10:57 25° NE 17:14:56 10° ESE daylight
25 Jun - 18:48:55 10° NW 18:53:48 46° WSW 18:58:13 10° S daylight
26 Jun - 07:41:10 10° SSE 07:45:27 20° ESE 07:49:41 10° ENE daylight
26 Jun - 09:21:28 10° SW 09:27:35 70° WNW 09:33:30 10° NNE daylight
26 Jun - 11:07:39 10° WNW 11:11:14 16° NW 11:14:43 10° N daylight
26 Jun - 16:24:40 10° N 16:28:00 17° NE 16:31:09 10° E daylight
26 Jun - 18:06:13 10° NNW 18:11:24 83° WSW 18:16:03 10° SSE daylight
27 Jun - 07:01:36 10° ESE 07:03:18 11° ESE 07:05:01 10° E daylight
27 Jun - 08:38:56 10° SSW 08:45:03 75° ESE 08:50:59 10° NNE daylight
27 Jun - 10:23:32 10° W 10:28:15 23° NW 10:32:50 10° N daylight
27 Jun - 15:43:21 10° NNE 15:44:55 11° NNE 15:46:28 10° NE daylight
27 Jun - 17:23:44 10° NNW 17:28:51 56° NE 17:33:28 10° SE daylight
27 Jun - 19:07:41 10° WNW 19:10:48 17° WSW 19:13:46 10° SW daylight
28 Jun - 07:56:50 10° S 08:02:37 46° ESE 08:08:17 10° NE daylight
28 Jun - 09:39:56 10° WSW 09:45:24 34° NW 09:50:43 10° NNE daylight
28 Jun - 16:41:26 10° NNW 16:46:09 33° NE 16:50:27 10° ESE daylight
28 Jun - 18:24:15 10° NW 18:28:38 31° WSW 18:32:41 10° S daylight
